SBIRS GEO-5 (USA 315)

Last updated on Thu Nov 21 2024 00:02:44 GMT+0000 (Coordinated Universal Time)

1 48618U 21042A 24325.22790269 .00000114 00000+0 00000+0 0 9993 2 48618 5.9075 326.0431 0002660 279.2265 277.4257 1.00272347 13005
UTC large
Height (km)
Speed (km/s)
/
Latitude / Longitude
Inclination (degrees)
Orbital Period (minutes)
Azimuth
Elevation
Range (km)
Doppler Factor

Next 0 passes for location: London (51.5072 / 0.1276)

Sorry there are no passes over London.